COSMOS 252 DEB, 9973

Orbit data source: Space-Track

COSMOS 252 DEB, 9973 is space debris in LEO originally from a launch on Fri, 01 Nov 1968 UTC launched from the Tyuratam Missile And Space Complex (TTMTR). Debris objects in space refer to the collection of defunct objects orbiting the Earth. Examples of debris include non-operational satellites, rocket bodies, and fragments generated from explosions, collisions, or faulty payload assembly.

Loading next visibility...
Identifier
9973, 1968-097DV
Orbit
LEO
Country
Flag of CISCIS
Related business
Manufacturer
Unknown
Mission
Spacecraft
Bus & Motor
Unknown
Mass
Unknown
Launch date (UTC)
1968-11-01 (57 years ago)
Launch vehicle
Unknown
Launch site
Tyuratam Missile And Space Complex (TTMTR)
Object type
Payload
Rocket body
Debris
Shape & HBR
Unknown shape, 0.1 m
Radar Cross Section
Small (<0.1 m²)

Expand to show TLE details & history
Last TLE update: 10 hours ago

TLE from 10 hours ago
0 COSMOS 252 DEB
1 09973U 68097DV  25288.59695808  .00005845  00000-0  18679-2 0  9998
2 09973  62.4070   4.7056 0586895 194.6607 163.6752 13.71954447997218
Epoch: 2025-10-15T14:19Z
TLE epoch observation values (Epoch: 2025-10-15T14:19:37.178Z)
Latitude
0.00002°
Longitude
125.43195°
Altitude
1,411.286 km
Speed
6.95 km/s
True Right ascension
00h 18m 49s
True Declination
0° 00' 00"
Sunlit
Object was in full shadow at epoch
Visualization orbit readout
Latitude
Unknown
Longitude
Unknown
Altitude
Unknown
Speed
Unknown
Apparent Right ascension
Unknown
Apparent Declination
Unknown
Sunlit
N/A
Visualization observer readout
Local Sidereal Time
18:58:43
Azimuth
Unknown
Elevation
Unknown
Doppler factor
Unknown
Orbital elements
Apogee altitude
1,424.017 km
Perigee altitude
558.977 km
Semi-major axis
7,369.634 km
Eccentricity
0.05869
Inclination
62.407°
RAAN
4.7056°
Arg. of periapsis
194.6607°
True anomaly
165.44066°
Mean anomaly
163.6752°
Eccentric anomaly
164.56988°
Mean motion
3.43063 °/min
Orbital period
104.94 mins
BSTAR
0.0018679
Loading maneuver chart data...
Computing Atmospheric mass density...
Loading historical data...
Loading historical data...
Loading historical data...
Loading historical data...
Loading historical data...
Loading historical data...
Loading historical data...

Documentation

Showing up to 5 results
|